,,Stat6,,Stat2,,Stat8,,Stat9,,Stat10,,Wind1,,Wind1,
time,status,PA1M_AVG,status,PR1M_SUM,status,RH1M_AVG,status,SR1M_AVG,status,TA1M_AVG,status,W1dAve1m,status,W1sAve1m,
2008-06-22, 00:00:00,VALID,917.183,VALID,0,VALID,100,VALID,0,VALID,19.5468,VALID,351,VALID,0,
2008-06-22, 00:01:00,VALID,917.214,VALID,0,VALID,100,VALID,0.0339617,VALID,19.563,VALID,351,VALID,0,
2008-06-22, 00:02:00,VALID,917.226,VALID,0,VALID,100,VALID,0,VALID,19.5725,VALID,357,VALID,0,
2008-06-22, 00:03:00,VALID,917.255,VALID,0,VALID,100,VALID,0.0169808,VALID,19.5556,VALID,19,VALID,0.661966,
2008-06-22, 00:04:00,VALID,917.269,VALID,0,VALID,100,VALID,0.0169808,VALID,19.5401,VALID,43,VALID,1.19648,
2008-06-22, 00:05:00,VALID,917.282,VALID,0,VALID,100,VALID,0,VALID,19.4754,VALID,45,VALID,0.871264,
2008-06-22, 00:06:00,VALID,917.281,VALID,0,VALID,100,VALID,0,VALID,19.4492,VALID,36,VALID,0.273996,
2008-06-22, 00:07:00,VALID,917.252,VALID,0,VALID,100,VALID,-0.0169808,VALID,19.4265,VALID,64,VALID,0.769709,
2008-06-22, 00:08:00,VALID,917.235,VALID,0,VALID,100,VALID,-0.0509425,VALID,19.44,VALID,47,VALID,1.27083,
2008-06-22, 00:09:00,VALID,917.202,VALID,0,VALID,100,VALID,-0.0679233,VALID,19.4595,VALID,57,VALID,0.70585,
2008-06-22, 00:10:00,VALID,917.167,VALID,0,VALID,100,VALID,-0.0339617,VALID,19.4303,VALID,87,VALID,0.47526,
2008-06-22, 00:11:00,VALID,917.137,VALID,0,VALID,100,VALID,-0.0169808,VALID,19.4235,VALID,86,VALID,0.74043,
2008-06-22, 00:12:00,VALID,917.118,VALID,0,VALID,100,VALID,-0.0169808,VALID,19.4203,VALID,96,VALID,0.614879,
2008-06-22, 00:13:00,VALID,917.1,VALID,0,VALID,100,VALID,-0.0339617,VALID,19.3941,VALID,114,VALID,0.795139,
2008-06-22, 00:14:00,VALID,917.107,VALID,0,VALID,100,VALID,-0.0169808,VALID,19.3784,VALID,128,VALID,0.632457,
2008-06-22, 00:15:00,VALID,917.093,VALID,0,VALID,100,VALID,0,VALID,19.3422,VALID,115,VALID,0.759588,
2008-06-22, 00:16:00,VALID,917.076,VALID,0,VALID,100,VALID,0,VALID,19.3394,VALID,110,VALID,1.19289,
2008-06-22, 00:17:00,VALID,917.045,VALID,0,VALID,100,VALID,-0.0169808,VALID,19.3005,VALID,110,VALID,1.10065,
2008-06-22, 00:18:00,VALID,917.026,VALID,0,VALID,100,VALID,0,VALID,19.2745,VALID,109,VALID,1.31473,
2008-06-22, 00:19:00,VALID,917.009,VALID,0,VALID,100,VALID,-0.0169808,VALID,19.2386,VALID,110,VALID,1.19622,
2008-06-22, 00:20:00,VALID,916.995,VALID,0,VALID,100,VALID,-0.0169808,VALID,19.2059,VALID,104,VALID,0.988554,
2008-06-22, 00:21:00,VALID,916.983,VALID,0,VALID,100,VALID,0,VALID,19.2062,VALID,109,VALID,0.887835,
2008-06-22, 00:22:00,VALID,916.971,VALID,0,VALID,100,VALID,-0.0169808,VALID,19.1964,VALID,131,VALID,0.929332,
2008-06-22, 00:23:00,VALID,916.97,VALID,0,VALID,100,VALID,-0.0169808,VALID,19.1899,VALID,131,VALID,0.911519,
2008-06-22, 00:24:00,VALID,916.952,VALID,0,VALID,100,VALID,0,VALID,19.1927,VALID,131,VALID,0.833576,
2008-06-22, 00:25:00,VALID,916.927,VALID,0,VALID,100,VALID,0,VALID,19.2099,VALID,138,VALID,0.816229,
2008-06-22, 00:26:00,VALID,916.904,VALID,0,VALID,100,VALID,0,VALID,19.2094,VALID,142,VALID,0.820126,
2008-06-22, 00:27:00,VALID,916.871,VALID,0,VALID,100,VALID,-0.0169808,VALID,19.2191,VALID,134,VALID,0.841751,
2008-06-22, 00:28:00,VALID,916.837,VALID,0,VALID,100,VALID,0,VALID,19.2191,VALID,132,VALID,0.330171,
2008-06-22, 00:29:00,VALID,916.795,VALID,0,VALID,100,VALID,0,VALID,19.1962,VALID,132,VALID,0.0483631,
2008-06-22, 00:30:00,VALID,916.776,VALID,0,VALID,100,VALID,-0.0169808,VALID,19.1929,VALID,132,VALID,0,
2008-06-22, 00:31:00,VALID,916.754,VALID,0,VALID,100,VALID,-0.0509425,VALID,19.1899,VALID,132,VALID,0,
2008-06-22, 00:32:00,VALID,916.753,VALID,0,VALID,100,VALID,-0.0509425,VALID,19.2027,VALID,122,VALID,0,
2008-06-22, 00:33:00,VALID,916.751,VALID,0,VALID,100,VALID,-0.0339617,VALID,19.2029,VALID,5,VALID,0,
2008-06-22, 00:34:00,VALID,916.735,VALID,0,VALID,100,VALID,0.0169808,VALID,19.1964,VALID,4,VALID,0,
2008-06-22, 00:35:00,VALID,916.743,VALID,0,VALID,100,VALID,-0.0509425,VALID,19.2029,VALID,4,VALID,0,
2008-06-22, 00:36:00,VALID,916.749,VALID,0,VALID,100,VALID,0,VALID,19.2127,VALID,4,VALID,0,
2008-06-22, 00:37:00,VALID,916.719,VALID,0,VALID,100,VALID,-0.0339617,VALID,19.2191,VALID,4,VALID,0,
2008-06-22, 00:38:00,VALID,916.71,VALID,0,VALID,100,VALID,-0.0169808,VALID,19.2097,VALID,4,VALID,0,
2008-06-22, 00:39:00,VALID,916.686,VALID,0,VALID,100,VALID,-0.0339617,VALID,19.1832,VALID,4,VALID,0,
2008-06-22, 00:40:00,VALID,916.648,VALID,0,VALID,100,VALID,-0.0169808,VALID,19.1151,VALID,4,VALID,0,
2008-06-22, 00:41:00,VALID,916.611,VALID,0,VALID,100,VALID,0,VALID,19.0602,VALID,4,VALID,0,
2008-06-22, 00:42:00,VALID,916.585,VALID,0,VALID,100,VALID,-0.0509425,VALID,19.0277,VALID,4,VALID,0,
2008-06-22, 00:43:00,VALID,916.579,VALID,0,VALID,100,VALID,0,VALID,19.0118,VALID,4,VALID,0,
2008-06-22, 00:44:00,VALID,916.59,VALID,0,VALID,100,VALID,-0.0169808,VALID,18.9953,VALID,4,VALID,0,
2008-06-22, 00:45:00,VALID,916.61,VALID,0,VALID,100,VALID,-0.0339617,VALID,18.9856,VALID,4,VALID,0,
2008-06-22, 00:46:00,VALID,916.655,VALID,0,VALID,100,VALID,-0.0339617,VALID,18.9925,VALID,4,VALID,0,
2008-06-22, 00:47:00,VALID,916.697,VALID,0,VALID,100,VALID,-0.0169808,VALID,18.9923,VALID,4,VALID,0,
2008-06-22, 00:48:00,VALID,916.741,VALID,0,VALID,100,VALID,-0.0849042,VALID,18.9893,VALID,4,VALID,0,
2008-06-22, 00:49:00,VALID,916.774,VALID,0,VALID,100,VALID,-0.0339617,VALID,19.015,VALID,4,VALID,0,
2008-06-22, 00:50:00,VALID,916.798,VALID,0,VALID,100,VALID,-0.0679233,VALID,19.0282,VALID,83,VALID,0,
2008-06-22, 00:51:00,VALID,916.822,VALID,0,VALID,100,VALID,-0.0169808,VALID,18.9761,VALID,163,VALID,0,
2008-06-22, 00:52:00,VALID,916.818,VALID,0,VALID,100,VALID,-0.0509425,VALID,18.9274,VALID,163,VALID,0,
2008-06-22, 00:53:00,VALID,916.83,VALID,0,VALID,100,VALID,0,VALID,18.9175,VALID,163,VALID,0,
2008-06-22, 00:54:00,VALID,916.833,VALID,0,VALID,100,VALID,-0.0509425,VALID,18.9207,VALID,163,VALID,0,
2008-06-22, 00:55:00,VALID,916.824,VALID,0,VALID,100,VALID,-0.0509425,VALID,18.9399,VALID,174,VALID,0,
2008-06-22, 00:56:00,VALID,916.793,VALID,0,VALID,100,VALID,-0.0339617,VALID,18.9694,VALID,191,VALID,0,
2008-06-22, 00:57:00,VALID,916.777,VALID,0,VALID,100,VALID,0,VALID,19.0013,VALID,191,VALID,0,
2008-06-22, 00:58:00,VALID,916.725,VALID,0,VALID,100,VALID,0,VALID,19.0375,VALID,191,VALID,0,
2008-06-22, 00:59:00,VALID,916.696,VALID,0,VALID,100,VALID,-0.0339617,VALID,19.0567,VALID,191,VALID,0,
2008-06-22, 01:00:00,VALID,916.666,VALID,0,VALID,100,VALID,-0.0339617,VALID,19.0861,VALID,191,VALID,0,
2008-06-22, 01:01:00,VALID,916.652,VALID,0,VALID,100,VALID,0.0169808,VALID,19.0924,VALID,191,VALID,0,
2008-06-22, 01:02:00,VALID,916.636,VALID,0,VALID,100,VALID,-0.0339617,VALID,19.0926,VALID,191,VALID,0,
2008-06-22, 01:03:00,VALID,916.624,VALID,0,VALID,100,VALID,-0.0509425,VALID,19.0924,VALID,191,VALID,0,
2008-06-22, 01:04:00,VALID,916.639,VALID,0,VALID,100,VALID,-0.0339617,VALID,19.1024,VALID,191,VALID,0,
2008-06-22, 01:05:00,VALID,916.659,VALID,0,VALID,100,VALID,0,VALID,19.1024,VALID,191,VALID,0,
2008-06-22, 01:06:00,VALID,916.672,VALID,0,VALID,100,VALID,0,VALID,19.0954,VALID,191,VALID,0,
2008-06-22, 01:07:00,VALID,916.681,VALID,0,VALID,100,VALID,-0.0169808,VALID,19.0954,VALID,191,VALID,0,
2008-06-22, 01:08:00,VALID,916.685,VALID,0,VALID,100,VALID,0,VALID,19.0994,VALID,191,VALID,0,
2008-06-22, 01:09:00,VALID,916.683,VALID,0,VALID,100,VALID,0,VALID,19.0794,VALID,190,VALID,0.0450581,
2008-06-22, 01:10:00,VALID,916.673,VALID,0,VALID,100,VALID,0,VALID,19.0567,VALID,189,VALID,0.854883,
2008-06-22, 01:11:00,VALID,916.643,VALID,0,VALID,100,VALID,-0.0169808,VALID,19.0505,VALID,187,VALID,0.798177,
2008-06-22, 01:12:00,VALID,916.604,VALID,0,VALID,100,VALID,0,VALID,19.0507,VALID,187,VALID,0.251817,
2008-06-22, 01:13:00,VALID,916.567,VALID,0,VALID,100,VALID,-0.0339617,VALID,19.047,VALID,187,VALID,0,
2008-06-22, 01:14:00,VALID,916.538,VALID,0,VALID,100,VALID,0,VALID,19.0402,VALID,187,VALID,0,
2008-06-22, 01:15:00,VALID,916.501,VALID,0,VALID,100,VALID,-0.0339617,VALID,19.031,VALID,187,VALID,0,
2008-06-22, 01:16:00,VALID,916.465,VALID,0,VALID,100,VALID,-0.0169808,VALID,19.0108,VALID,187,VALID,0,
2008-06-22, 01:17:00,VALID,916.436,VALID,0,VALID,100,VALID,-0.0339617,VALID,19.018,VALID,187,VALID,0,
2008-06-22, 01:18:00,VALID,916.422,VALID,0,VALID,100,VALID,-0.0509425,VALID,18.9986,VALID,187,VALID,0,
2008-06-22, 01:19:00,VALID,916.409,VALID,0,VALID,100,VALID,-0.0509425,VALID,18.9756,VALID,187,VALID,0,
2008-06-22, 01:20:00,VALID,916.415,VALID,0,VALID,100,VALID,-0.0509425,VALID,18.9629,VALID,187,VALID,0,
2008-06-22, 01:21:00,VALID,916.414,VALID,0,VALID,100,VALID,-0.0509425,VALID,18.9594,VALID,187,VALID,0,
2008-06-22, 01:22:00,VALID,916.425,VALID,0,VALID,100,VALID,-0.0169808,VALID,18.9434,VALID,187,VALID,0,
2008-06-22, 01:23:00,VALID,916.438,VALID,0,VALID,100,VALID,-0.0339617,VALID,18.9172,VALID,186,VALID,0,
2008-06-22, 01:24:00,VALID,916.455,VALID,0,VALID,100,VALID,-0.0339617,VALID,18.8945,VALID,143,VALID,0,
2008-06-22, 01:25:00,VALID,916.466,VALID,0,VALID,100,VALID,-0.0169808,VALID,18.872,VALID,143,VALID,0.483259,
2008-06-22, 01:26:00,VALID,916.482,VALID,0,VALID,100,VALID,-0.0509425,VALID,18.8716,VALID,142,VALID,1.06211,
2008-06-22, 01:27:00,VALID,916.478,VALID,0,VALID,100,VALID,-0.0169808,VALID,18.888,VALID,141,VALID,1.05566,
2008-06-22, 01:28:00,VALID,916.473,VALID,0,VALID,100,VALID,-0.0169808,VALID,18.9112,VALID,139,VALID,0.633903,
2008-06-22, 01:29:00,VALID,916.465,VALID,0,VALID,100,VALID,-0.0339617,VALID,18.9304,VALID,143,VALID,0.786044,
2008-06-22, 01:30:00,VALID,916.452,VALID,0,VALID,100,VALID,-0.0679233,VALID,18.9631,VALID,138,VALID,0.794212,
2008-06-22, 01:31:00,VALID,916.434,VALID,0,VALID,100,VALID,-0.0509425,VALID,18.9826,VALID,146,VALID,0.782703,
2008-06-22, 01:32:00,VALID,916.402,VALID,0,VALID,100,VALID,0,VALID,19.0016,VALID,144,VALID,1.0524,
2008-06-22, 01:33:00,VALID,916.376,VALID,0,VALID,100,VALID,-0.0339617,VALID,18.9978,VALID,141,VALID,0.826601,
2008-06-22, 01:34:00,VALID,916.347,VALID,0,VALID,100,VALID,-0.0169808,VALID,19.018,VALID,141,VALID,0.776163,
2008-06-22, 01:35:00,VALID,916.318,VALID,0,VALID,100,VALID,-0.0509425,VALID,19.0213,VALID,155,VALID,0.723514,
2008-06-22, 01:36:00,VALID,916.28,VALID,0,VALID,100,VALID,-0.0509425,VALID,19.031,VALID,121,VALID,0.613451,
2008-06-22, 01:37:00,VALID,916.249,VALID,0,VALID,100,VALID,-0.0169808,VALID,19.008,VALID,121,VALID,0.312881,
2008-06-22, 01:38:00,VALID,916.222,VALID,0,VALID,100,VALID,0,VALID,19.0106,VALID,121,VALID,0,
2008-06-22, 01:39:00,VALID,916.196,VALID,0,VALID,100,VALID,0.0679233,VALID,18.9934,VALID,121,VALID,0,
2008-06-22, 01:40:00,VALID,916.186,VALID,0,VALID,100,VALID,0.0849042,VALID,18.9901,VALID,121,VALID,0,
2008-06-22, 01:41:00,VALID,916.168,VALID,0,VALID,100,VALID,0.0849042,VALID,19.0029,VALID,121,VALID,0,
2008-06-22, 01:42:00,VALID,916.17,VALID,0,VALID,100,VALID,0.101885,VALID,19.0031,VALID,121,VALID,0,
2008-06-22, 01:43:00,VALID,916.168,VALID,0,VALID,100,VALID,0.0849042,VALID,19.0131,VALID,121,VALID,0,
2008-06-22, 01:44:00,VALID,916.169,VALID,0,VALID,100,VALID,0.0679233,VALID,19.0166,VALID,121,VALID,0,
2008-06-22, 01:45:00,VALID,916.175,VALID,0,VALID,100,VALID,0.0679233,VALID,19.0096,VALID,121,VALID,0,
2008-06-22, 01:46:00,VALID,916.186,VALID,0,VALID,100,VALID,0.101885,VALID,19.0325,VALID,121,VALID,0,
2008-06-22, 01:47:00,VALID,916.199,VALID,0,VALID,100,VALID,0.0509425,VALID,19.0425,VALID,121,VALID,0,
2008-06-22, 01:48:00,VALID,916.215,VALID,0,VALID,100,VALID,0.0339617,VALID,19.049,VALID,121,VALID,0,
2008-06-22, 01:49:00,VALID,916.244,VALID,0,VALID,100,VALID,0.0509425,VALID,19.042,VALID,131,VALID,0.0364583,
2008-06-22, 01:50:00,VALID,916.265,VALID,0,VALID,100,VALID,0.0849042,VALID,19.0356,VALID,226,VALID,0.145064,
2008-06-22, 01:51:00,VALID,916.303,VALID,0,VALID,100,VALID,0.0849042,VALID,19.0233,VALID,226,VALID,0.163352,
2008-06-22, 01:52:00,VALID,916.315,VALID,0,VALID,100,VALID,0.0509425,VALID,19.0001,VALID,224,VALID,0.407774,
2008-06-22, 01:53:00,VALID,916.327,VALID,0,VALID,100,VALID,0.0169808,VALID,18.9978,VALID,223,VALID,0.162064,
2008-06-22, 01:54:00,VALID,916.347,VALID,0,VALID,100,VALID,-0.0339617,VALID,18.9988,VALID,223,VALID,0,
2008-06-22, 01:55:00,VALID,916.355,VALID,0,VALID,100,VALID,-0.0509425,VALID,19.0113,VALID,224,VALID,0.311806,
2008-06-22, 01:56:00,VALID,916.359,VALID,0,VALID,100,VALID,-0.0849042,VALID,19.0213,VALID,237,VALID,0.192361,
2008-06-22, 01:57:00,VALID,916.372,VALID,0,VALID,100,VALID,-0.0679233,VALID,19.018,VALID,243,VALID,0.452035,
2008-06-22, 01:58:00,VALID,916.375,VALID,0,VALID,100,VALID,-0.0679233,VALID,19.0345,VALID,226,VALID,0.31907,
2008-06-22, 01:59:00,VALID,916.382,VALID,0,VALID,100,VALID,-0.0679233,VALID,19.0307,VALID,223,VALID,0.713728,
2008-06-22, 02:00:00,VALID,916.416,VALID,0,VALID,100,VALID,-0.0509425,VALID,19.0437,VALID,216,VALID,0.542188,
2008-06-22, 02:01:00,VALID,916.417,VALID,0,VALID,100,VALID,-0.0509425,VALID,19.0732,VALID,238,VALID,0.219105,
2008-06-22, 02:02:00,VALID,916.437,VALID,0,VALID,100,VALID,-0.0339617,VALID,19.0857,VALID,198,VALID,0.538194,
2008-06-22, 02:03:00,VALID,916.452,VALID,0,VALID,100,VALID,-0.0169808,VALID,19.1054,VALID,214,VALID,0.265625,
2008-06-22, 02:04:00,VALID,916.475,VALID,0,VALID,100,VALID,-0.0679233,VALID,19.1151,VALID,195,VALID,0.237464,
2008-06-22, 02:05:00,VALID,916.487,VALID,0,VALID,100,VALID,-0.0339617,VALID,19.1251,VALID,195,VALID,0.150073,
2008-06-22, 02:06:00,VALID,916.511,VALID,0,VALID,100,VALID,-0.118866,VALID,19.1348,VALID,224,VALID,0.371761,
2008-06-22, 02:07:00,VALID,916.552,VALID,0,VALID,100,VALID,-0.0509425,VALID,19.1348,VALID,228,VALID,0.0584162,
2008-06-22, 02:08:00,VALID,916.585,VALID,0,VALID,100,VALID,-0.101885,VALID,19.1445,VALID,228,VALID,0,
2008-06-22, 02:09:00,VALID,916.625,VALID,0,VALID,100,VALID,-0.0509425,VALID,19.1672,VALID,225,VALID,0.0463423,
2008-06-22, 02:10:00,VALID,916.659,VALID,0,VALID,100,VALID,-0.0509425,VALID,19.167,VALID,198,VALID,0.926847,
2008-06-22, 02:11:00,VALID,916.671,VALID,0,VALID,100,VALID,-0.0679233,VALID,19.17,VALID,213,VALID,0.299538,
2008-06-22, 02:12:00,VALID,916.677,VALID,0,VALID,100,VALID,-0.0509425,VALID,19.1737,VALID,241,VALID,0.652521,
2008-06-22, 02:13:00,VALID,916.664,VALID,0,VALID,100,VALID,-0.0339617,VALID,19.1702,VALID,246,VALID,0.0383185,
2008-06-22, 02:14:00,VALID,916.64,VALID,0,VALID,100,VALID,-0.0339617,VALID,19.1672,VALID,245,VALID,0.0583079,
2008-06-22, 02:15:00,VALID,916.632,VALID,0,VALID,100,VALID,-0.0339617,VALID,19.1702,VALID,220,VALID,0,
2008-06-22, 02:16:00,VALID,916.604,VALID,0,VALID,100,VALID,-0.0339617,VALID,19.1835,VALID,199,VALID,0.00133384,
2008-06-22, 02:17:00,VALID,916.591,VALID,0,VALID,100,VALID,-0.0339617,VALID,19.1934,VALID,189,VALID,0,
2008-06-22, 02:18:00,VALID,916.571,VALID,0,VALID,100,VALID,0,VALID,19.1837,VALID,189,VALID,0,
2008-06-22, 02:19:00,VALID,916.559,VALID,0,VALID,100,VALID,-0.0339617,VALID,19.177,VALID,189,VALID,0,
2008-06-22, 02:20:00,VALID,916.555,VALID,0,VALID,100,VALID,-0.101885,VALID,19.1772,VALID,176,VALID,0,
2008-06-22, 02:21:00,VALID,916.552,VALID,0,VALID,100,VALID,-0.101885,VALID,19.1877,VALID,151,VALID,0,
2008-06-22, 02:22:00,VALID,916.538,VALID,0,VALID,100,VALID,-0.0849042,VALID,19.1615,VALID,138,VALID,0,
2008-06-22, 02:23:00,VALID,916.518,VALID,0,VALID,100,VALID,-0.0509425,VALID,19.1415,VALID,103,VALID,0,
2008-06-22, 02:24:00,VALID,916.502,VALID,0,VALID,100,VALID,-0.101885,VALID,19.1221,VALID,102,VALID,0.0403646,
2008-06-22, 02:25:00,VALID,916.478,VALID,0,VALID,100,VALID,-0.0679233,VALID,19.1121,VALID,106,VALID,0.192383,
2008-06-22, 02:26:00,VALID,916.472,VALID,0,VALID,100,VALID,-0.101885,VALID,19.0899,VALID,104,VALID,1.2247,
2008-06-22, 02:27:00,VALID,916.455,VALID,0,VALID,100,VALID,-0.101885,VALID,19.0799,VALID,128,VALID,0.756288,
2008-06-22, 02:28:00,VALID,916.469,VALID,0,VALID,100,VALID,-0.118866,VALID,19.0699,VALID,123,VALID,0.656605,
2008-06-22, 02:29:00,VALID,916.459,VALID,0,VALID,100,VALID,-0.0679233,VALID,19.0607,VALID,112,VALID,0.964286,
2008-06-22, 02:30:00,VALID,916.47,VALID,0,VALID,100,VALID,-0.101885,VALID,19.0407,VALID,81,VALID,1.13411,
2008-06-22, 02:31:00,VALID,916.485,VALID,0,VALID,100,VALID,-0.0339617,VALID,19.025,VALID,81,VALID,0.966518,
2008-06-22, 02:32:00,VALID,916.489,VALID,0,VALID,100,VALID,-0.101885,VALID,19.005,VALID,85,VALID,0.609933,
2008-06-22, 02:33:00,VALID,916.467,VALID,0,VALID,100,VALID,-0.0679233,VALID,19.008,VALID,82,VALID,0.104687,
2008-06-22, 02:34:00,VALID,916.438,VALID,0,VALID,100,VALID,-0.101885,VALID,19.035,VALID,69,VALID,0.545201,
2008-06-22, 02:35:00,VALID,916.401,VALID,0,VALID,100,VALID,-0.0679233,VALID,19.0245,VALID,66,VALID,0.814145,
2008-06-22, 02:36:00,VALID,916.363,VALID,0,VALID,100,VALID,-0.0849042,VALID,19.0245,VALID,86,VALID,0.758176,
2008-06-22, 02:37:00,VALID,916.338,VALID,0,VALID,100,VALID,-0.0339617,VALID,19.0078,VALID,83,VALID,1.29306,
2008-06-22, 02:38:00,VALID,916.342,VALID,0,VALID,100,VALID,-0.0849042,VALID,19.015,VALID,91,VALID,0.852134,
2008-06-22, 02:39:00,VALID,916.33,VALID,0,VALID,100,VALID,-0.0509425,VALID,18.9923,VALID,89,VALID,0.208519,
2008-06-22, 02:40:00,VALID,916.34,VALID,0,VALID,100,VALID,-0.0509425,VALID,18.9858,VALID,111,VALID,0,
2008-06-22, 02:41:00,VALID,916.331,VALID,0,VALID,100,VALID,-0.0849042,VALID,18.9728,VALID,111,VALID,0,
2008-06-22, 02:42:00,VALID,916.319,VALID,0,VALID,100,VALID,-0.101885,VALID,18.9596,VALID,110,VALID,0,
2008-06-22, 02:43:00,VALID,916.323,VALID,0,VALID,100,VALID,-0.0679233,VALID,18.9691,VALID,114,VALID,0,
2008-06-22, 02:44:00,VALID,916.315,VALID,0,VALID,100,VALID,-0.0679233,VALID,18.9726,VALID,123,VALID,0,
2008-06-22, 02:45:00,VALID,916.309,VALID,0,VALID,100,VALID,-0.0339617,VALID,18.9561,VALID,76,VALID,0.867708,
2008-06-22, 02:46:00,VALID,916.322,VALID,0,VALID,100,VALID,-0.0339617,VALID,18.9501,VALID,65,VALID,0.739955,
2008-06-22, 02:47:00,VALID,916.332,VALID,0,VALID,100,VALID,-0.0169808,VALID,18.9142,VALID,71,VALID,0.0363948,
2008-06-22, 02:48:00,VALID,916.352,VALID,0,VALID,100,VALID,-0.0679233,VALID,18.9012,VALID,71,VALID,0,
2008-06-22, 02:49:00,VALID,916.356,VALID,0,VALID,100,VALID,-0.0679233,VALID,18.8982,VALID,71,VALID,0,
2008-06-22, 02:50:00,VALID,916.344,VALID,0,VALID,100,VALID,-0.0169808,VALID,18.8718,VALID,71,VALID,0,
2008-06-22, 02:51:00,VALID,916.341,VALID,0,VALID,100,VALID,-0.0679233,VALID,18.8593,VALID,71,VALID,0,
2008-06-22, 02:52:00,VALID,916.334,VALID,0,VALID,100,VALID,-0.0679233,VALID,18.8236,VALID,71,VALID,0,
2008-06-22, 02:53:00,VALID,916.336,VALID,0,VALID,100,VALID,-0.0509425,VALID,18.8231,VALID,71,VALID,0,
2008-06-22, 02:54:00,VALID,916.325,VALID,0,VALID,100,VALID,0,VALID,18.8414,VALID,68,VALID,0.0379464,
2008-06-22, 02:55:00,VALID,916.329,VALID,0,VALID,100,VALID,-0.0169808,VALID,18.8296,VALID,68,VALID,0,
2008-06-22, 02:56:00,VALID,916.362,VALID,0,VALID,100,VALID,0,VALID,18.8129,VALID,68,VALID,0,
2008-06-22, 02:57:00,VALID,916.36,VALID,0,VALID,100,VALID,0.0169808,VALID,18.8034,VALID,68,VALID,0,
2008-06-22, 02:58:00,VALID,916.368,VALID,0,VALID,100,VALID,-0.0169808,VALID,18.7708,VALID,68,VALID,0,
2008-06-22, 02:59:00,VALID,916.36,VALID,0,VALID,100,VALID,0,VALID,18.758,VALID,68,VALID,0,
2008-06-22, 03:00:00,VALID,916.335,VALID,0,VALID,100,VALID,0.0169808,VALID,18.7349,VALID,68,VALID,0.146723,
2008-06-22, 03:01:00,VALID,916.305,VALID,0,VALID,100,VALID,0.0169808,VALID,18.7186,VALID,70,VALID,0.889535,
2008-06-22, 03:02:00,VALID,916.291,VALID,0,VALID,100,VALID,0,VALID,18.7059,VALID,70,VALID,0.469308,
2008-06-22, 03:03:00,VALID,916.274,VALID,0,VALID,100,VALID,0,VALID,18.7161,VALID,70,VALID,0,
2008-06-22, 03:04:00,VALID,916.273,VALID,0,VALID,100,VALID,-0.0169808,VALID,18.7094,VALID,70,VALID,0,
2008-06-22, 03:05:00,VALID,916.257,VALID,0,VALID,100,VALID,0.0339617,VALID,18.7219,VALID,66,VALID,0,
2008-06-22, 03:06:00,VALID,916.274,VALID,0,VALID,100,VALID,0,VALID,18.7219,VALID,29,VALID,0,
2008-06-22, 03:07:00,VALID,916.282,VALID,0,VALID,100,VALID,0.0339617,VALID,18.7251,VALID,29,VALID,0,
2008-06-22, 03:08:00,VALID,916.284,VALID,0,VALID,100,VALID,-0.0509425,VALID,18.7027,VALID,29,VALID,0,
2008-06-22, 03:09:00,VALID,916.291,VALID,0,VALID,100,VALID,-0.0679233,VALID,18.6906,VALID,29,VALID,0,
2008-06-22, 03:10:00,VALID,916.289,VALID,0,VALID,100,VALID,-0.0849042,VALID,18.6976,VALID,29,VALID,0,
2008-06-22, 03:11:00,VALID,916.28,VALID,0,VALID,100,VALID,-0.0679233,VALID,18.7011,VALID,29,VALID,0,
2008-06-22, 03:12:00,VALID,916.28,VALID,0,VALID,100,VALID,-0.0849042,VALID,18.6976,VALID,29,VALID,0,
2008-06-22, 03:13:00,VALID,916.267,VALID,0,VALID,100,VALID,-0.0849042,VALID,18.711,VALID,29,VALID,0,
2008-06-22, 03:14:00,VALID,916.266,VALID,0,VALID,100,VALID,-0.101885,VALID,18.7041,VALID,29,VALID,0,
2008-06-22, 03:15:00,VALID,916.267,VALID,0,VALID,100,VALID,-0.118866,VALID,18.6916,VALID,29,VALID,0,
2008-06-22, 03:16:00,VALID,916.275,VALID,0,VALID,100,VALID,-0.0849042,VALID,18.6976,VALID,29,VALID,0,
2008-06-22, 03:17:00,VALID,916.266,VALID,0,VALID,100,VALID,-0.101885,VALID,18.6978,VALID,29,VALID,0,
2008-06-22, 03:18:00,VALID,916.256,VALID,0,VALID,100,VALID,-0.0849042,VALID,18.7108,VALID,29,VALID,0,
2008-06-22, 03:19:00,VALID,916.249,VALID,0,VALID,100,VALID,-0.101885,VALID,18.7076,VALID,29,VALID,0,
2008-06-22, 03:20:00,VALID,916.23,VALID,0,VALID,100,VALID,-0.0339617,VALID,18.6647,VALID,29,VALID,0,
2008-06-22, 03:21:00,VALID,916.205,VALID,0,VALID,100,VALID,-0.101885,VALID,18.626,VALID,29,VALID,0,
2008-06-22, 03:22:00,VALID,916.186,VALID,0,VALID,100,VALID,-0.0679233,VALID,18.5903,VALID,29,VALID,0,
2008-06-22, 03:23:00,VALID,916.165,VALID,0,VALID,100,VALID,-0.0169808,VALID,18.5729,VALID,97,VALID,0,
2008-06-22, 03:24:00,VALID,916.161,VALID,0,VALID,100,VALID,0.0169808,VALID,18.5465,VALID,150,VALID,0,
2008-06-22, 03:25:00,VALID,916.143,VALID,0,VALID,100,VALID,-0.0169808,VALID,18.5046,VALID,154,VALID,0,
2008-06-22, 03:26:00,VALID,916.143,VALID,0,VALID,100,VALID,-0.0169808,VALID,18.4816,VALID,159,VALID,0,
2008-06-22, 03:27:00,VALID,916.13,VALID,0,VALID,100,VALID,0,VALID,18.4884,VALID,174,VALID,0,
2008-06-22, 03:28:00,VALID,916.117,VALID,0,VALID,100,VALID,0,VALID,18.5083,VALID,159,VALID,0,
2008-06-22, 03:29:00,VALID,916.103,VALID,0,VALID,100,VALID,0,VALID,18.4981,VALID,160,VALID,0,
2008-06-22, 03:30:00,VALID,916.079,VALID,0,VALID,100,VALID,0,VALID,18.5048,VALID,160,VALID,0,
2008-06-22, 03:31:00,VALID,916.051,VALID,0,VALID,100,VALID,0,VALID,18.4979,VALID,160,VALID,0,
2008-06-22, 03:32:00,VALID,916.01,VALID,0,VALID,100,VALID,0.0339617,VALID,18.5145,VALID,154,VALID,0,
2008-06-22, 03:33:00,VALID,915.997,VALID,0,VALID,100,VALID,0.0169808,VALID,18.4557,VALID,151,VALID,0,
2008-06-22, 03:34:00,VALID,915.976,VALID,0,VALID,100,VALID,0,VALID,18.4235,VALID,151,VALID,0,
2008-06-22, 03:35:00,VALID,915.971,VALID,0,VALID,100,VALID,0,VALID,18.3973,VALID,151,VALID,0,
2008-06-22, 03:36:00,VALID,915.958,VALID,0,VALID,100,VALID,0.0169808,VALID,18.3813,VALID,151,VALID,0,
2008-06-22, 03:37:00,VALID,915.954,VALID,0,VALID,100,VALID,0.0169808,VALID,18.3714,VALID,151,VALID,0,
2008-06-22, 03:38:00,VALID,915.919,VALID,0,VALID,100,VALID,-0.0509425,VALID,18.3823,VALID,151,VALID,0,
2008-06-22, 03:39:00,VALID,915.911,VALID,0,VALID,100,VALID,-0.0849042,VALID,18.3762,VALID,151,VALID,0,
2008-06-22, 03:40:00,VALID,915.886,VALID,0,VALID,100,VALID,-0.0509425,VALID,18.3371,VALID,98,VALID,0,
2008-06-22, 03:41:00,VALID,915.856,VALID,0,VALID,100,VALID,-0.0679233,VALID,18.3077,VALID,42,VALID,0,
2008-06-22, 03:42:00,VALID,915.826,VALID,0,VALID,100,VALID,-0.0849042,VALID,18.259,VALID,53,VALID,0,
2008-06-22, 03:43:00,VALID,915.797,VALID,0,VALID,100,VALID,-0.0849042,VALID,18.2268,VALID,68,VALID,0,
2008-06-22, 03:44:00,VALID,915.783,VALID,0,VALID,100,VALID,-0.0849042,VALID,18.1942,VALID,119,VALID,0,
2008-06-22, 03:45:00,VALID,915.784,VALID,0,VALID,100,VALID,-0.0849042,VALID,18.2011,VALID,141,VALID,0.445499,
2008-06-22, 03:46:00,VALID,915.798,VALID,0,VALID,100,VALID,-0.101885,VALID,18.1918,VALID,149,VALID,0.608132,
2008-06-22, 03:47:00,VALID,915.803,VALID,0,VALID,100,VALID,-0.0849042,VALID,18.1812,VALID,153,VALID,0.327951,